When you browse on this site, cookies collect data to enhance your experience and personalize the content and advertising you see.
Visit our Privacy Policy to learn more. By continuing to use the site, you agree to this use of cookies and data.
  • en Suisse
  • Liste des pays
  • À 7 jours
  • Température de l'eau
  • Carte météo
  • Widgets météo
  • user-avatar
    Se connecter

    Météo par heure à Oakland

    Ce jour, 16 Décembre, Lundi

    Heure Température Précipitation Vent Pression Humidité
    00:00 +10°C° 0 mm 1 m/s 766 mmHg 72%
    01:00 +10°C° 0 mm 1 m/s 766 mmHg 71%
    02:00 +10°C° 0 mm 1 m/s 766 mmHg 72%
    03:00 +9°C° 0 mm 1 m/s 766 mmHg 72%
    04:00 +9°C° 0 mm 1 m/s 766 mmHg 72%
    05:00 +9°C° 0 mm 1 m/s 766 mmHg 73%
    06:00 +9°C° 0 mm 1 m/s 767 mmHg 74%
    07:00 +8°C° 0 mm 1 m/s 767 mmHg 75%
    08:00 +9°C° 0 mm 1 m/s 767 mmHg 70%
    09:00 +9°C° 0 mm 2 m/s 767 mmHg 64%
    10:00 +10°C° 0 mm 2 m/s 767 mmHg 59%
    11:00 +12°C° 0 mm 2 m/s 767 mmHg 54%
    12:00 +12°C° 0 mm 2 m/s 766 mmHg 50%
    13:00 +12°C° 0 mm 3 m/s 766 mmHg 45%
    14:00 +12°C° 0 mm 3 m/s 766 mmHg 47%
    15:00 +12°C° 0 mm 3 m/s 766 mmHg 48%
    16:00 +12°C° 0 mm 3 m/s 766 mmHg 50%
    17:00 +11°C° 0 mm 3 m/s 765 mmHg 53%
    18:00 +10°C° 0 mm 3 m/s 765 mmHg 56%
    19:00 +9°C° 0 mm 3 m/s 765 mmHg 59%
    20:00 +9°C° 0 mm 3 m/s 766 mmHg 60%
    21:00 +8°C° 0 mm 3 m/s 766 mmHg 62%
    22:00 +8°C° 0 mm 3 m/s 766 mmHg 64%
    23:00 +8°C° 0 mm 3 m/s 766 mmHg 66%

    Demain, 17 Décembre, Mardi

    Heure Température Précipitation Vent Pression Humidité
    00:00 +8°C° 0 mm 3 m/s 765 mmHg 68%
    01:00 +7°C° 0 mm 3 m/s 765 mmHg 70%
    02:00 +7°C° 0 mm 3 m/s 765 mmHg 71%
    03:00 +7°C° 0 mm 3 m/s 764 mmHg 72%
    04:00 +7°C° 0 mm 3 m/s 764 mmHg 74%
    05:00 +7°C° 0 mm 3 m/s 764 mmHg 73%
    06:00 +7°C° 0 mm 3 m/s 764 mmHg 73%
    07:00 +7°C° 0 mm 3 m/s 764 mmHg 73%
    08:00 +7°C° 0 mm 3 m/s 764 mmHg 69%
    09:00 +8°C° 0 mm 3 m/s 764 mmHg 66%
    10:00 +9°C° 0 mm 3 m/s 764 mmHg 62%
    11:00 +10°C° 0 mm 3 m/s 763 mmHg 57%
    12:00 +11°C° 0 mm 3 m/s 762 mmHg 52%
    13:00 +12°C° 0 mm 3 m/s 762 mmHg 47%
    14:00 +13°C° 0 mm 2 m/s 761 mmHg 49%
    15:00 +13°C° 0 mm 2 m/s 760 mmHg 50%
    16:00 +13°C° 0 mm 2 m/s 760 mmHg 52%
    17:00 +12°C° 0 mm 2 m/s 759 mmHg 54%
    18:00 +10°C° 0 mm 3 m/s 759 mmHg 56%
    19:00 +9°C° 0 mm 3 m/s 759 mmHg 58%
    20:00 +8°C° 1 mm 4 m/s 759 mmHg 65%
    21:00 +8°C° 1 mm 5 m/s 758 mmHg 72%
    22:00 +9°C° 1 mm 6 m/s 758 mmHg 79%
    23:00 +9°C° 1.5 mm 6 m/s 759 mmHg 81%

    Après-demain, 18 Décembre, Mercredi

    Heure Température Précipitation Vent Pression Humidité
    00:00 +9°C° 1.5 mm 6 m/s 759 mmHg 82%
    01:00 +9°C° 1.5 mm 6 m/s 759 mmHg 84%
    02:00 +9°C° 0.9 mm 5 m/s 759 mmHg 84%
    03:00 +10°C° 0.9 mm 4 m/s 759 mmHg 84%
    04:00 +11°C° 0.9 mm 3 m/s 759 mmHg 85%
    05:00 +11°C° 0.6 mm 3 m/s 760 mmHg 85%
    06:00 +11°C° 0.6 mm 3 m/s 760 mmHg 84%
    07:00 +11°C° 0.6 mm 3 m/s 760 mmHg 84%
    08:00 +11°C° 0.3 mm 3 m/s 761 mmHg 81%
    09:00 +12°C° 0.3 mm 3 m/s 761 mmHg 78%
    10:00 +12°C° 0.3 mm 3 m/s 762 mmHg 75%
    11:00 +13°C° 0.1 mm 4 m/s 761 mmHg 73%
    12:00 +13°C° 0.1 mm 4 m/s 761 mmHg 71%
    13:00 +13°C° 0.1 mm 4 m/s 761 mmHg 70%
    14:00 +13°C° 0 mm 4 m/s 761 mmHg 71%
    15:00 +13°C° 0 mm 4 m/s 762 mmHg 72%
    16:00 +12°C° 0 mm 3 m/s 762 mmHg 73%
    17:00 +12°C° 0 mm 3 m/s 762 mmHg 75%
    18:00 +12°C° 0 mm 2 m/s 763 mmHg 77%
    19:00 +10°C° 0 mm 2 m/s 763 mmHg 79%
    20:00 +11°C° 0 mm 1 m/s 763 mmHg 80%
    21:00 +11°C° 0 mm 1 m/s 764 mmHg 81%
    22:00 +10°C° 0 mm 0 m/s 764 mmHg 81%
    23:00 +9°C° 0 mm 0 m/s 764 mmHg 82%

    19 Décembre, Jeudi

    Heure Température Précipitation Vent Pression Humidité
    00:00 +9°C° 0 mm 0 m/s 764 mmHg 82%
    01:00 +9°C° 0 mm 0 m/s 764 mmHg 83%
    02:00 +9°C° 0 mm 0 m/s 764 mmHg 83%
    03:00 +9°C° 0 mm 0 m/s 764 mmHg 83%
    04:00 +9°C° 0 mm 0 m/s 764 mmHg 84%
    05:00 +9°C° 0 mm 0 m/s 764 mmHg 84%
    06:00 +9°C° 0 mm 0 m/s 764 mmHg 84%
    07:00 +10°C° 0 mm 1 m/s 765 mmHg 84%
    08:00 +11°C° 0 mm 1 m/s 765 mmHg 80%
    09:00 +11°C° 0 mm 1 m/s 765 mmHg 76%
    10:00 +12°C° 0 mm 1 m/s 766 mmHg 73%
    11:00 +13°C° 0 mm 1 m/s 765 mmHg 70%
    12:00 +14°C° 0 mm 1 m/s 765 mmHg 67%
    13:00 +14°C° 0 mm 1 m/s 765 mmHg 64%
    14:00 +14°C° 0 mm 1 m/s 764 mmHg 64%
    15:00 +13°C° 0 mm 0 m/s 764 mmHg 65%
    16:00 +13°C° 0 mm 0 m/s 764 mmHg 66%
    17:00 +13°C° 0 mm 0 m/s 764 mmHg 68%
    18:00 +12°C° 0 mm 0 m/s 764 mmHg 71%
    19:00 +11°C° 0 mm 0 m/s 764 mmHg 74%
    20:00 +11°C° 0 mm 0 m/s 765 mmHg 74%
    21:00 +11°C° 0 mm 0 m/s 765 mmHg 74%
    22:00 +11°C° 0 mm 0 m/s 765 mmHg 74%
    23:00 +11°C° 0 mm 0 m/s 765 mmHg 75%

    20 Décembre, Vendredi

    Heure Température Précipitation Vent Pression Humidité
    00:00 +10°C° 0 mm 0 m/s 765 mmHg 75%
    01:00 +10°C° 0 mm 0 m/s 765 mmHg 76%
    02:00 +10°C° 0 mm 0 m/s 765 mmHg 76%
    03:00 +11°C° 0 mm 1 m/s 765 mmHg 76%
    04:00 +10°C° 0 mm 1 m/s 765 mmHg 76%
    05:00 +10°C° 0 mm 1 m/s 765 mmHg 76%
    06:00 +10°C° 0 mm 1 m/s 764 mmHg 76%
    07:00 +10°C° 0 mm 1 m/s 764 mmHg 77%
    08:00 +11°C° 0 mm 1 m/s 764 mmHg 73%
    09:00 +12°C° 0 mm 1 m/s 764 mmHg 69%
    10:00 +12°C° 0 mm 1 m/s 764 mmHg 65%
    11:00 +12°C° 0 mm 0 m/s 764 mmHg 62%
    12:00 +13°C° 0 mm 0 m/s 763 mmHg 58%
    13:00 +14°C° 0 mm 0 m/s 763 mmHg 54%
    14:00 +15°C° 0 mm 1 m/s 763 mmHg 56%
    15:00 +15°C° 0 mm 1 m/s 762 mmHg 58%
    16:00 +14°C° 0 mm 1 m/s 762 mmHg 60%
    17:00 +14°C° 0 mm 1 m/s 762 mmHg 63%
    18:00 +12°C° 0 mm 0 m/s 762 mmHg 66%
    19:00 +11°C° 0 mm 0 m/s 762 mmHg 69%
    20:00 +12°C° 0 mm 1 m/s 762 mmHg 69%
    21:00 +12°C° 0 mm 1 m/s 761 mmHg 69%
    22:00 +12°C° 0 mm 1 m/s 761 mmHg 70%
    23:00 +10°C° 0 mm 2 m/s 761 mmHg 69%

    21 Décembre, Samedi

    Heure Température Précipitation Vent Pression Humidité
    00:00 +10°C° 0 mm 2 m/s 760 mmHg 68%
    01:00 +10°C° 0 mm 2 m/s 760 mmHg 68%
    02:00 +10°C° 0 mm 2 m/s 759 mmHg 68%
    03:00 +10°C° 0 mm 2 m/s 759 mmHg 69%
    04:00 +10°C° 0 mm 2 m/s 759 mmHg 70%
    05:00 +9°C° 0 mm 2 m/s 758 mmHg 70%
    06:00 +9°C° 0 mm 2 m/s 758 mmHg 70%
    07:00 +9°C° 0 mm 3 m/s 758 mmHg 70%
    08:00 +10°C° 0 mm 4 m/s 758 mmHg 66%
    09:00 +10°C° 0 mm 5 m/s 758 mmHg 62%
    10:00 +12°C° 0 mm 5 m/s 758 mmHg 59%
    11:00 +13°C° 0 mm 6 m/s 757 mmHg 60%
    12:00 +13°C° 0 mm 6 m/s 756 mmHg 62%
    13:00 +14°C° 0 mm 7 m/s 756 mmHg 63%
    14:00 +14°C° 0 mm 6 m/s 755 mmHg 61%
    15:00 +14°C° 0 mm 6 m/s 755 mmHg 58%
    16:00 +14°C° 0 mm 5 m/s 754 mmHg 55%
    17:00 +13°C° 0.8 mm 5 m/s 754 mmHg 60%
    18:00 +13°C° 0.8 mm 4 m/s 754 mmHg 66%
    19:00 +12°C° 0.8 mm 3 m/s 754 mmHg 71%
    20:00 +12°C° 3 mm 3 m/s 754 mmHg 77%
    21:00 +11°C° 3 mm 3 m/s 754 mmHg 82%
    22:00 +11°C° 3 mm 3 m/s 754 mmHg 88%
    23:00 +11°C° 2.3 mm 3 m/s 754 mmHg 89%
    Voir plus